O3B FM9

Last updated on Thu Sep 10 2026 00:03:17 GMT+0000 (Coordinated Universal Time)

1 40351U 14083D 26252.37972079 -.00000028 00000+0 00000+0 0 9999 2 40351 0.0545 346.8064 0002616 179.2997 193.9000 5.00116079214287
UTC large
Height (km)
Speed (km/s)
/
Latitude / Longitude
Inclination (degrees)
Orbital Period (minutes)
Azimuth
Elevation
Range (km)
Doppler Factor

Next 0 passes for location: London (51.5072 / 0.1276)

No passes found over London.
O3B FM9